Powrót do katalogu

GEOTAIL

AktywnyNaukaHEO
NORAD 22049·PAYLOAD·🇯🇵 Japan

Wystrzelony Jul 24, 1992 z Cape Canaveral Space Force Station

Loading…

Następne Przeloty (najbliższe 24 godziny)

TLE

Starzejące sięSource: Space-Track

Epoka: Sep 3, 2026, 02:11 UTC

1 22049U 92044A   26246.09134355 -.00000793  00000-0  00000-0 0  9996
2 22049  45.5136 340.2822 5647478 285.2595   2.0262  0.19146871 15916

Śledź GEOTAIL w czasie rzeczywistym z AllMySat

Download on the App Store